Weather History for Tulsa, OK

Change the Weather History Date:

Friday, February 21, 2014

  Actual Average Record
Temperature  
Mean Temperature 49 °F 44 °F  
Max Temperature 65 °F 55 °F 82 °F (1996)
Min Temperature 32 °F 33 °F 7 °F (1939)
Degree Days  
Heating Degree Days 16 21  
Month to date heating degree days 613 499  
Since 1 July heating degree days 3124 2772  
Moisture  
Dew Point 13 °F    
Average Humidity 29    
Maximum Humidity 47    
Minimum Humidity 11    
Precipitation  
Precipitation 0.00 in 0.08 in 1.43 in (1913)
Month to date precipitation 0.28 1.31  
Year to date precipitation 0.41 2.97  
Sea Level Pressure  
Sea Level Pressure 30.00 in    
Wind  
Wind Speed 8 mph (SW)    
Max Wind Speed 23 mph    
Max Gust Speed 33 mph    
Visibility 10 miles    
Events      
T = Trace of Precipitation, MM = Missing Value Source: NWS Daily Summary

Daily Weather History Graph

Daily Weather History Graph

Search for Another Location

Airport:

Trip Planner

Search our weather history database for the weather conditions in past years. The results will help you decide how hot, cold, wet, or windy it might be!

Date:

Astronomy

Feb. 21, 2014 Rise Set
Actual Time 7:04 AM CST 6:10 PM CST
Civil Twilight 6:37 AM CST 6:36 PM CST
Nautical Twilight 6:08 AM CST 7:06 PM CST
Astronomical Twilight 5:38 AM CST 7:36 PM CST
Moon No Moon Rise 10:41 AM CST (2/21)
Length of Visible Light 11h 58m
Length of Day
11h 06m
Waning Gibbous, 60% of the Moon is Illuminated
Feb 21
Waning Gibbous
Feb 22
Last Quarter
Mar 1
New
Mar 8
First Quarter
Mar 16
Full

Hourly Weather History & Observations

Time (CST) Temp. Windchill Dew Point Humidity Pressure Visibility Wind Dir Wind Speed Gust Speed Precip Events Conditions
12:53 AM 36.0 °F 31.1 °F 17.1 °F 46% 30.04 in 10.0 mi West 5.8 mph - N/A   Clear
1:53 AM 37.0 °F 31.6 °F 16.0 °F 42% 30.05 in 10.0 mi West 6.9 mph - N/A   Clear
2:53 AM 37.0 °F 32.4 °F 15.1 °F 41% 30.05 in 10.0 mi West 5.8 mph - N/A   Clear
3:53 AM 34.0 °F 26.6 °F 15.1 °F 46% 30.04 in 10.0 mi West 9.2 mph - N/A   Clear
4:53 AM 33.1 °F 26.9 °F 15.1 °F 48% 30.05 in 10.0 mi WSW 6.9 mph - N/A   Clear
5:53 AM 35.1 °F - 14.0 °F 42% 30.04 in 10.0 mi Calm Calm - N/A   Clear
6:53 AM 34.0 °F 29.8 °F 12.9 °F 42% 30.05 in 10.0 mi South 4.6 mph - N/A   Clear
7:53 AM 36.0 °F 31.1 °F 16.0 °F 44% 30.06 in 10.0 mi South 5.8 mph - N/A   Partly Cloudy
8:53 AM 42.1 °F 37.7 °F 12.9 °F 31% 30.06 in 10.0 mi SSW 6.9 mph - N/A   Partly Cloudy
9:53 AM 48.0 °F - 12.0 °F 24% 30.04 in 10.0 mi SSW 8.1 mph - N/A   Scattered Clouds
10:53 AM 54.0 °F - 10.9 °F 18% 30.04 in 10.0 mi SW 6.9 mph 20.7 mph N/A   Scattered Clouds
11:53 AM 59.0 °F - 5.0 °F 12% 30.02 in 10.0 mi SSW 11.5 mph 25.3 mph N/A   Partly Cloudy
12:53 PM 60.1 °F - 6.1 °F 12% 29.98 in 10.0 mi WSW 15.0 mph 26.5 mph N/A   Partly Cloudy
1:53 PM 62.1 °F - 8.1 °F 12% 29.95 in 10.0 mi SW 15.0 mph 26.5 mph N/A   Partly Cloudy
2:53 PM 64.0 °F - 9.0 °F 12% 29.92 in 10.0 mi SSW 9.2 mph 20.7 mph N/A   Scattered Clouds
3:53 PM 64.9 °F - 10.0 °F 12% 29.92 in 10.0 mi SW 12.7 mph 26.5 mph N/A   Mostly Cloudy
4:53 PM 63.0 °F - 10.9 °F 13% 29.93 in 10.0 mi WSW 17.3 mph 28.8 mph N/A   Mostly Cloudy
5:53 PM 63.0 °F - 12.0 °F 14% 29.93 in 10.0 mi SW 10.4 mph - N/A   Mostly Cloudy
6:53 PM 60.1 °F - 14.0 °F 16% 29.94 in 10.0 mi SW 4.6 mph - N/A   Mostly Cloudy
7:53 PM 53.1 °F - 16.0 °F 23% 29.96 in 10.0 mi Calm Calm - N/A   Scattered Clouds
8:53 PM 51.1 °F - 17.1 °F 26% 29.98 in 10.0 mi South 5.8 mph - N/A   Partly Cloudy
9:53 PM 48.9 °F - 17.1 °F 28% 29.99 in 10.0 mi South 3.5 mph - N/A   Clear
10:53 PM 48.0 °F - 19.0 °F 32% 29.99 in 10.0 mi South 5.8 mph - N/A   Clear
11:53 PM 48.9 °F - 18.0 °F 29% 29.97 in 10.0 mi SSE 10.4 mph - N/A   Clear